Regional Weather Roundup
Issued by NWS

Home | Current Version | Previous Version | Text Only | Print | Product List | Glossary On
Versions: 1 2 3 4 5 6 7 8 9 10 11 12 13 14 15 16 17 18 19 20 21 22 23 24 25 26 27 28 29 30 31 32 33 34 35 36 37 38 39 40 41 42 43 44 45 46 47 48 49 50
673
ASUS45 KBOI 290010
RWRID

IDAHO REGIONAL WEATHER ROUNDUP
NATIONAL WEATHER SERVICE BOISE ID
600 PM MDT SAT MAY 28 2016

NOTE: "FAIR" INDICATES FEW OR NO CLOUDS BELOW 12000 FEET
WITH NO SIGNIFICANT WEATHER AND/OR OBSTRUCTIONS TO VISIBILITY

IDZ012-014-290100-
SOUTHWEST IDAHO


CITY           SKY/WX    TMP DP  RH WIND       PRES   REMARKS
BOISE          SUNNY     69  25  19 NW9       30.01F
CALDWELL       SUNNY     72  34  24 N9        30.01F
MOUNTAIN HOME  SUNNY     74  37  26 NW12      29.99F
$$

IDZ016-017-290100-
SOUTHCENTRAL IDAHO


CITY           SKY/WX    TMP DP  RH WIND       PRES   REMARKS
BURLEY         SUNNY     66  31  27 VRB6      30.03F
JEROME         SUNNY     67  28  23 W9        30.04F
TWIN FALLS     SUNNY     66  27  23 NW9       30.04F
$$

IDZ019>023-290100-
SOUTHEAST IDAHO


CITY           SKY/WX    TMP DP  RH WIND       PRES   REMARKS
IDAHO FALLS    SUNNY     65  29  25 SW13G24   30.06S
POCATELLO      SUNNY     66  27  23 W9        30.06F
REXBURG        SUNNY     63  29  27 SW9G17    30.05S
$$

IDZ006-010-011-018-031-032-290100-
CENTRAL IDAHO MOUNTAINS


CITY           SKY/WX    TMP DP  RH WIND       PRES   REMARKS
MCCALL         SUNNY     60  29  30 SW8       30.05F
STANLEY          N/A     61  23  23 VRB6      30.09S
SALMON         MOSUNNY   64  34  32 NW6       29.97F
CHALLIS        MOSUNNY   68  24  19 NE3       29.98S
$$

IDZ002-004-006-007-026-290100-
NORTHERN IDAHO


CITY           SKY/WX    TMP DP  RH WIND       PRES   REMARKS
LEWISTON       SUNNY     71  38  29 NE5       30.00F
LOWELL           N/A     71  37  28 S3        30.00F
COEUR D`ALENE  MOSUNNY   61  37  41 E14       30.01F
MULLAN PASS    PTSUNNY   44  29  55 VRB6G16   30.09S
$$




USA.gov is the U.S. government's official web portal to all federal, state and local government web resources and services.